FW7822 Weather Reports


time (UTC)temp
C
wind
direction
speed
KPH
gust
KPH
rain 1hr
cm
rain 24hr
cm
rain mn
cm
humidity
%
barometer
mb
20260906165408 23 86 11.3 12.9 0.00 0.00 0.00 80 1019.5
20260906164909 23 83 8.0 16.1 0.00 0.00 0.00 80 1019.6
20260906164409 23 115 3.2 6.4 0.00 0.00 0.00 82 1019.6
20260906163909 23 83 6.4 12.9 0.00 0.00 0.00 81 1019.7
20260906163411 23 80 8.0 17.7 0.00 0.00 0.00 82 1019.6
20260906162909 22 107 3.2 8.0 0.00 0.00 0.00 83 1019.6
20260906162408 22 72 8.0 12.9 0.00 0.00 0.00 83 1019.6
20260906161909 22 84 4.8 9.7 0.00 0.00 0.00 83 1019.8
20260906161409 22 102 3.2 4.8 0.00 0.00 0.00 83 1019.7
20260906160908 22 87 3.2 9.7 0.00 0.00 0.00 83 1019.7
20260906160409 22 124 3.2 9.7 0.00 0.00 0.00 85 1019.8
20260906155908 22 103 4.8 12.9 0.00 0.00 0.00 84 1019.8
20260906155410 22 117 3.2 9.7 0.00 0.00 0.00 84 1019.8
20260906154908 22 191 3.2 4.8 0.00 0.00 0.00 85 1019.9
20260906154408 22 108 1.6 3.2 0.00 0.00 0.00 86 1019.8
20260906153908 21 82 9.7 14.5 0.00 0.00 0.00 86 1019.8
20260906153409 21 81 8.0 14.5 0.00 0.00 0.00 86 1019.8
20260906152909 21 96 3.2 8.0 0.00 0.00 0.00 88 1019.9
20260906152409 21 76 8.0 14.5 0.00 0.00 0.00 87 1019.9
20260906151908 21 84 4.8 12.9 0.00 0.00 0.00 88 1019.9
20260906151408 21 87 4.8 8.0 0.00 0.00 0.00 89 1019.9
20260906150908 21 92 3.2 6.4 0.00 0.00 0.00 89 1020.0
20260906150409 21 93 3.2 6.4 0.00 0.00 0.00 89 1019.9
20260906145909 21 74 4.8 12.9 0.00 0.00 0.00 89 1019.9
20260906145408 21 110 4.8 9.7 0.00 0.00 0.00 90 1019.9
20260906144908 21 157 1.6 3.2 0.00 0.00 0.00 90 1019.9
20260906144409 21 95 0.0 3.2 0.00 0.00 0.00 91 1019.9
20260906143908 21 169 0.0 3.2 0.00 0.00 0.00 91 1019.9
20260906143409 20 96 1.6 3.2 0.00 0.00 0.00 91 1019.8
20260906142908 20 122 1.6 3.2 0.00 0.00 0.00 92 1019.7
20260906142408 20 93 6.4 12.9 0.00 0.00 0.00 91 1019.7
20260906141909 20 104 4.8 9.7 0.00 0.00 0.00 92 1019.6
20260906141408 20 110 4.8 9.7 0.00 0.00 0.00 92 1019.7
20260906140908 20 87 3.2 8.0 0.00 0.00 0.00 92 1019.6
20260906140408 20 108 4.8 9.7 0.00 0.00 0.00 92 1019.6
20260906135908 20 99 4.8 9.7 0.00 0.00 0.00 93 1019.7
20260906135410 20 87 8.0 14.5 0.00 0.00 0.00 93 1019.7
20260906134909 20 87 9.7 16.1 0.00 0.00 0.00 93 1019.6
20260906134409 20 146 1.6 3.2 0.00 0.00 0.00 93 1019.6
20260906133908 20 89 12.9 17.7 0.00 0.00 0.00 93 1019.5
20260906133408 20 90 8.0 12.9 0.00 0.00 0.00 93 1019.4
20260906132908 20 113 3.2 6.4 0.00 0.00 0.00 94 1019.4
20260906132408 20 95 8.0 14.5 0.00 0.00 0.00 93 1019.3
20260906131908 20 87 9.7 16.1 0.00 0.00 0.00 93 1019.3
20260906131409 20 80 6.4 11.3 0.00 0.00 0.00 93 1019.3
20260906130908 20 90 4.8 11.3 0.00 0.00 0.00 93 1019.2
20260906130409 20 93 6.4 11.3 0.00 0.00 0.00 93 1019.2
20260906125909 20 80 9.7 14.5 0.00 0.00 0.00 93 1019.2
20260906125408 20 77 11.3 19.3 0.00 0.00 0.00 93 1019.0
20260906124909 20 74 6.4 8.0 0.00 0.00 0.00 93 1018.8
20260906124408 20 86 4.8 6.4 0.00 0.00 0.00 93 1018.8
20260906123908 20 82 4.8 9.7 0.00 0.00 0.00 93 1018.8
20260906123408 20 80 3.2 6.4 0.00 0.00 0.00 93 1018.7
20260906122908 20 97 4.8 8.0 0.00 0.00 0.00 93 1018.7
20260906122408 20 90 4.8 9.7 0.00 0.00 0.00 93 1018.7
20260906121909 20 99 4.8 6.4 0.00 0.00 0.00 93 1018.7
20260906121409 20 89 11.3 17.7 0.00 0.00 0.00 94 1018.7
20260906120909 20 87 9.7 11.3 0.00 0.00 0.00 94 1018.6
20260906120408 20 89 9.7 17.7 0.00 0.00 0.00 95 1018.5
20260906115909 20 89 3.2 6.4 0.00 0.00 0.00 96 1018.5
20260906115408 20 117 4.8 9.7 0.00 0.00 0.00 96 1018.4
20260906114909 20 91 8.0 12.9 0.00 0.00 0.00 97 1018.4
20260906114408 20 69 1.6 4.8 0.00 0.00 0.00 97 1018.4
20260906113909 20 70 1.6 4.8 0.00 0.00 0.00 97 1018.4
20260906113408 20 232 0.0 1.6 0.00 0.00 0.00 97 1018.3
20260906112908 20 90 1.6 4.8 0.00 0.00 0.00 97 1018.2
20260906112408 20 103 3.2 8.0 0.00 0.00 0.00 96 1018.2
20260906111908 20 95 4.8 9.7 0.00 0.00 0.00 96 1018.2
20260906111408 20 96 6.4 9.7 0.00 0.00 0.00 97 1018.2
20260906110908 20 95 3.2 6.4 0.00 0.00 0.00 97 1018.2
20260906110409 20 73 1.6 3.2 0.00 0.00 0.00 97 1018.2
20260906105909 20 113 1.6 3.2 0.00 0.00 0.00 97 1018.2
20260906105408 20 49 1.6 4.8 0.00 0.00 0.00 97 1018.2
20260906104908 20 218 0.0 1.6 0.00 0.00 0.00 96 1018.2
20260906104408 20 69 1.6 4.8 0.00 0.00 0.00 96 1018.1
20260906103908 20 236 0.0 1.6 0.00 0.00 0.00 96 1018.1
20260906103408 20 97 1.6 3.2 0.00 0.00 0.00 96 1018.0
20260906102908 20 192 1.6 3.2 0.00 0.00 0.00 96 1018.0
20260906102408 20 108 0.0 3.2 0.00 0.00 0.00 96 1018.1
20260906101908 20 142 1.6 3.2 0.00 0.00 0.00 95 1018.1
20260906101409 20 88 3.2 3.2 0.00 0.00 0.00 95 1018.1
20260906100908 20 102 1.6 3.2 0.00 0.00 0.00 95 1018.1
20260906100408 20 84 3.2 6.4 0.00 0.00 0.00 95 1018.2
20260906095909 20 140 1.6 3.2 0.00 0.00 0.00 95 1018.1
20260906095409 20 127 1.6 4.8 0.00 0.00 0.00 96 1018.0
20260906094908 20 80 3.2 6.4 0.00 0.00 0.00 96 1017.9
20260906094409 20 85 0.0 1.6 0.00 0.00 0.00 96 1017.8
20260906093908 20 189 1.6 3.2 0.00 0.00 0.00 96 1017.6
20260906093410 20 181 1.6 3.2 0.00 0.00 0.00 96 1017.5
20260906092908 20 183 0.0 1.6 0.00 0.00 0.00 96 1017.4
20260906092408 20 55 0.0 1.6 0.00 0.00 0.00 96 1017.3
20260906091908 20 80 3.2 6.4 0.00 0.00 0.00 96 1017.2
20260906091408 20 74 3.2 6.4 0.00 0.00 0.00 96 1017.1
20260906090908 20 123 1.6 4.8 0.00 0.00 0.00 95 1017.1
20260906090409 20 123 1.6 3.2 0.00 0.00 0.00 95 1017.0
20260906085909 20 97 4.8 6.4 0.00 0.00 0.00 95 1017.0
20260906085408 20 142 1.6 6.4 0.00 0.00 0.00 95 1017.0
20260906084908 20 119 3.2 8.0 0.00 0.00 0.00 95 1017.2
20260906084408 20 80 4.8 8.0 0.00 0.00 0.00 95 1017.2
20260906083908 20 86 4.8 8.0 0.00 0.00 0.00 95 1017.1
20260906083408 20 62 3.2 6.4 0.00 0.00 0.00 95 1017.2
20260906082908 20 27 0.0 1.6 0.00 0.00 0.00 95 1017.2
20260906082409 20 60 1.6 3.2 0.00 0.00 0.00 95 1017.2
20260906081909 20 45 1.6 3.2 0.00 0.00 0.00 95 1017.2
20260906081408 21 343 0.0 1.6 0.00 0.00 0.00 95 1017.2
20260906080908 21 164 0.0 1.6 0.00 0.00 0.00 94 1017.1
20260906080409 21 89 1.6 1.6 0.00 0.00 0.00 94 1017.1
20260906075908 21 83 4.8 8.0 0.00 0.00 0.00 94 1017.1
20260906075408 21 56 0.0 3.2 0.00 0.00 0.00 94 1017.1
20260906074908 21 104 4.8 9.7 0.00 0.00 0.00 94 1017.1
20260906074410 21 83 6.4 8.0 0.00 0.00 0.00 94 1017.1
20260906073908 21 101 3.2 4.8 0.00 0.00 0.00 94 1017.2
20260906073408 21 92 3.2 4.8 0.00 0.00 0.00 94 1017.2
20260906072908 21 90 3.2 6.4 0.00 0.00 0.00 95 1017.4
20260906072408 21 71 3.2 6.4 0.00 0.00 0.00 95 1017.4
20260906071908 21 64 1.6 6.4 0.00 0.00 0.00 95 1017.3
20260906071409 21 68 0.0 3.2 0.00 0.00 0.00 95 1017.3
20260906070909 21 58 1.6 3.2 0.00 0.00 0.00 95 1017.4
20260906070408 21 53 1.6 3.2 0.00 0.00 0.00 95 1017.5
20260906065908 21 26 1.6 3.2 0.00 0.00 0.00 95 1017.5
20260906065408 21 360 1.6 3.2 0.00 0.00 0.00 95 1017.6
20260906064908 21 87 1.6 3.2 0.00 0.00 0.00 95 1017.6
20260906064408 21 306 0.0 1.6 0.00 0.00 0.00 95 1017.6
20260906063910 21 49 0.0 1.6 0.00 0.00 0.00 95 1017.6
20260906063408 21 82 1.6 3.2 0.00 0.00 0.00 95 1017.7
20260906062908 21 348 1.6 3.2 0.00 0.00 0.00 95 1017.8
20260906062408 21 289 1.6 3.2 0.00 0.00 0.00 95 1017.8
20260906061909 21 316 1.6 3.2 0.00 0.00 0.00 95 1017.8
20260906061409 21 266 0.0 1.6 0.00 0.00 0.00 94 1017.7
20260906060909 21 358 0.0 3.2 0.00 0.00 0.00 94 1017.6
20260906060408 21 318 1.6 3.2 0.00 0.00 0.00 94 1017.7
20260906055908 21 79 0.0 3.2 0.00 0.00 0.00 94 1017.7
20260906055408 21 234 0.0 1.6 0.00 0.00 0.00 93 1017.8
20260906054908 21 312 1.6 3.2 0.00 0.00 0.00 93 1017.8
20260906054409 22 330 0.0 3.2 0.00 0.00 0.00 93 1017.7
20260906053908 22 267 0.0 1.6 0.00 0.00 0.00 92 1017.6
20260906053408 22 300 0.0 1.6 0.00 0.00 0.00 92 1017.6
20260906052908 22 309 0.0 1.6 0.00 0.00 0.00 91 1017.5
20260906052408 22 89 1.6 3.2 0.00 0.00 0.00 91 1017.4
20260906051910 22 50 0.0 1.6 0.00 0.00 0.00 91 1017.4
20260906051408 22 16 1.6 3.2 0.00 0.00 0.00 91 1017.4
20260906050909 22 212 0.0 0.0 0.00 0.00 0.00 91 1017.3
20260906050408 22 17 1.6 1.6 0.00 0.00 0.00 90 1017.2
20260906045908 22 7 1.6 3.2 0.00 0.00 0.00 90 1017.2
20260906045408 22 2 0.0 1.6 0.00 0.00 0.00 90 1017.2
20260906044909 22 75 3.2 4.8 0.00 0.00 0.00 89 1017.1
20260906044408 22 57 1.6 4.8 0.00 0.00 0.00 90 1017.2
20260906043908 22 78 3.2 4.8 0.00 0.00 0.00 90 1017.2
20260906043408 22 84 4.8 8.0 0.00 0.00 0.00 90 1017.2
20260906042908 23 94 3.2 6.4 0.00 0.00 0.00 90 1017.3
20260906042408 23 78 1.6 3.2 0.00 0.00 0.00 90 1017.3
20260906041908 23 40 1.6 3.2 0.00 0.00 0.00 91 1017.2
20260906041409 23 73 1.6 3.2 0.00 0.00 0.00 91 1017.2
20260906040908 23 149 0.0 4.8 0.00 0.00 0.00 91 1017.3
20260906040408 23 87 0.0 4.8 0.00 0.00 0.00 91 1017.4
20260906035908 23 75 0.0 1.6 0.00 0.00 0.00 91 1017.3
20260906035409 23 8 0.0 1.6 0.00 0.00 0.00 91 1017.2
20260906034909 23 306 0.0 1.6 0.00 0.00 0.00 91 1017.2
20260906034410 23 347 1.6 3.2 0.00 0.00 0.00 90 1017.2
20260906033908 23 359 1.6 3.2 0.00 0.00 0.00 90 1017.2
20260906033409 23 257 0.0 1.6 0.00 0.00 0.00 90 1017.2
20260906032908 23 76 1.6 4.8 0.00 0.00 0.00 90 1017.1
20260906032408 23 78 1.6 4.8 0.00 0.00 0.00 90 1017.1
20260906031908 23 90 3.2 8.0 0.00 0.00 0.00 90 1017.0
20260906031409 23 26 1.6 3.2 0.00 0.00 0.00 90 1017.0
20260906030909 23 72 0.0 1.6 0.00 0.00 0.00 89 1017.0
20260906030408 23 24 1.6 3.2 0.00 0.00 0.00 89 1016.9
20260906025909 23 80 3.2 6.4 0.00 0.00 0.00 89 1016.8
20260906025415 23 89 1.6 4.8 0.00 0.00 0.00 88 1016.8
20260906024908 23 68 3.2 9.7 0.00 0.00 0.00 88 1016.7
20260906024409 23 17 1.6 3.2 0.00 0.00 0.00 89 1016.6
20260906023908 23 61 1.6 3.2 0.00 0.00 0.00 89 1016.6
20260906023408 23 10 1.6 3.2 0.00 0.00 0.00 89 1016.5
20260906022908 23 20 1.6 3.2 0.00 0.00 0.00 89 1016.5
20260906022408 23 16 0.0 1.6 0.00 0.00 0.00 89 1016.4
20260906021908 23 38 0.0 1.6 0.00 0.00 0.00 89 1016.3
20260906021408 24 308 0.0 1.6 0.00 0.00 0.00 89 1016.3
20260906020908 24 11 1.6 3.2 0.00 0.00 0.00 89 1016.2
20260906020408 24 321 0.0 1.6 0.00 0.00 0.00 89 1016.1
20260906015908 24 338 1.6 1.6 0.00 0.00 0.00 88 1016.1
20260906015408 24 354 0.0 1.6 0.00 0.00 0.00 89 1016.0
20260906014909 24 285 0.0 0.0 0.00 0.00 0.00 88 1015.9
20260906014408 24 329 0.0 1.6 0.00 0.00 0.00 88 1015.8
20260906013911 24 360 1.6 3.2 0.00 0.00 0.00 88 1015.8
20260906013409 24 343 1.6 3.2 0.00 0.00 0.00 88 1015.7
20260906012908 24 360 1.6 3.2 0.00 0.00 0.00 88 1015.6
20260906012408 24 1 1.6 3.2 0.00 0.00 0.00 88 1015.6
20260906011909 24 337 0.0 1.6 0.00 0.00 0.00 88 1015.6
20260906011408 24 346 1.6 3.2 0.00 0.00 0.00 88 1015.6
20260906010908 24 277 0.0 0.0 0.00 0.00 0.00 87 1015.6
20260906010408 25 33 1.6 3.2 0.00 0.00 0.00 87 1015.6
20260906005910 25 8 3.2 4.8 0.00 0.00 0.00 87 1015.7
20260906005411 25 360 1.6 4.8 0.00 0.00 0.00 86 1015.7
20260906004908 25 16 1.6 3.2 0.00 0.00 0.00 86 1015.6
20260906004408 25 345 1.6 3.2 0.00 0.00 0.00 86 1015.5
20260906003908 25 330 0.0 1.6 0.00 0.00 0.00 85 1015.5
20260906003408 25 304 1.6 3.2 0.00 0.00 0.00 84 1015.4
20260906002908 25 67 0.0 0.0 0.00 0.00 0.00 84 1015.3
20260906002408 25 58 0.0 1.6 0.00 0.00 0.00 83 1015.4
20260906001908 26 346 0.0 1.6 0.00 0.00 0.00 83 1015.4
20260906001408 26 343 0.0 1.6 0.00 0.00 0.00 82 1015.4
20260906000909 26 12 1.6 3.2 0.00 0.00 0.00 82 1015.4
20260906000410 26 113 1.6 4.8 0.00 0.00 0.00 81 1015.3
20260905235909 26 28 0.0 3.2 0.00 0.00 0.00 81 1015.4
20260905235408 26 360 0.0 0.0 0.00 0.00 0.00 81 1015.4
20260905234909 26 58 0.0 1.6 0.00 0.00 0.00 81 1015.4
20260905234408 26 351 1.6 3.2 0.00 0.00 0.00 82 1015.4
20260905233909 26 44 0.0 3.2 0.00 0.00 0.00 81 1015.4
20260905233408 27 269 0.0 0.0 0.00 0.00 0.00 80 1015.3
20260905232908 27 291 0.0 1.6 0.00 0.00 0.00 79 1015.3
20260905232408 27 52 0.0 1.6 0.00 0.00 0.00 80 1015.3
20260905231908 27 348 1.6 3.2 0.00 0.00 0.00 80 1015.3
20260905231410 27 7 0.0 1.6 0.00 0.00 0.00 80 1015.3
20260905230908 27 36 1.6 3.2 0.00 0.00 0.00 79 1015.3
20260905230409 27 7 1.6 3.2 0.00 0.00 0.00 80 1015.2
20260905225909 27 142 1.6 4.8 0.00 0.00 0.00 79 1015.1
20260905225408 27 17 1.6 3.2 0.00 0.00 0.00 79 1015.0
20260905224909 27 24 3.2 3.2 0.00 0.00 0.00 79 1014.9
20260905224408 28 111 3.2 6.4 0.00 0.00 0.00 78 1014.7
20260905223908 28 21 1.6 3.2 0.00 0.00 0.00 78 1014.7
20260905223408 28 84 8.0 16.1 0.00 0.00 0.00 76 1014.6
20260905222908 29 89 1.6 4.8 0.00 0.00 0.00 76 1014.5
20260905222408 29 61 4.8 11.3 0.00 0.00 0.00 75 1014.3
20260905221908 29 101 6.4 11.3 0.00 0.00 0.00 75 1014.2
20260905221408 29 73 4.8 11.3 0.00 0.00 0.00 75 1014.2
20260905220908 30 26 1.6 3.2 0.00 0.00 0.00 73 1014.4
20260905220409 30 19 3.2 4.8 0.00 0.00 0.00 74 1014.4
20260905215908 30 100 3.2 4.8 0.00 0.00 0.00 74 1014.4
20260905215408 30 70 1.6 4.8 0.00 0.00 0.00 74 1014.3
20260905214908 30 1 3.2 4.8 0.00 0.00 0.00 73 1014.2
20260905214408 30 30 3.2 6.4 0.00 0.00 0.00 72 1014.3
20260905213908 30 93 6.4 12.9 0.00 0.00 0.00 72 1014.2
20260905213408 30 42 3.2 8.0 0.00 0.00 0.00 73 1014.2
20260905212909 30 57 3.2 9.7 0.00 0.00 0.00 73 1014.3
20260905212409 30 87 3.2 11.3 0.00 0.00 0.00 73 1014.3
20260905211908 30 96 0.0 1.6 0.00 0.00 0.00 73 1014.4
20260905211408 30 41 3.2 6.4 0.00 0.00 0.00 73 1014.5
20260905210909 30 87 1.6 3.2 0.00 0.00 0.00 74 1014.6
20260905210409 30 130 1.6 3.2 0.00 0.00 0.00 74 1014.7
20260905205908 30 98 6.4 9.7 0.00 0.00 0.00 73 1014.7
20260905205408 30 51 0.0 3.2 0.00 0.00 0.00 74 1014.9
20260905204908 30 80 3.2 6.4 0.00 0.00 0.00 73 1015.0
20260905204408 30 69 3.2 4.8 0.00 0.00 0.00 73 1015.0
20260905203908 30 21 3.2 6.4 0.00 0.00 0.00 73 1015.1
20260905203408 30 11 6.4 11.3 0.00 0.00 0.00 71 1015.1
20260905202908 31 86 4.8 6.4 0.00 0.00 0.00 71 1015.1
20260905202408 31 49 3.2 6.4 0.00 0.00 0.00 70 1015.2
20260905201908 31 6 6.4 8.0 0.00 0.00 0.00 70 1015.3
20260905201408 31 9 6.4 9.7 0.00 0.00 0.00 71 1015.3
20260905200908 31 18 3.2 6.4 0.00 0.00 0.00 71 1015.4
20260905200411 31 19 4.8 9.7 0.00 0.00 0.00 71 1015.4
20260905195909 31 15 8.0 11.3 0.00 0.00 0.00 71 1015.4
20260905195409 31 25 4.8 9.7 0.00 0.00 0.00 71 1015.4
20260905194909 31 175 3.2 4.8 0.00 0.00 0.00 72 1015.5
20260905194408 31 16 6.4 8.0 0.00 0.00 0.00 70 1015.7
20260905193909 31 356 1.6 4.8 0.00 0.00 0.00 72 1015.7
20260905193408 30 92 3.2 8.0 0.00 0.00 0.00 73 1015.7
20260905192908 30 26 3.2 12.9 0.00 0.00 0.00 73 1015.6
20260905192408 30 17 6.4 9.7 0.00 0.00 0.00 73 1015.6
20260905191910 30 360 6.4 8.0 0.00 0.00 0.00 74 1015.7
20260905191408 30 14 8.0 11.3 0.00 0.00 0.00 73 1015.8
20260905190909 30 10 4.8 8.0 0.00 0.00 0.00 75 1015.9
20260905190408 30 20 4.8 8.0 0.00 0.00 0.00 74 1015.8
20260905185908 31 92 1.6 6.4 0.00 0.00 0.00 75 1016.0
20260905185408 31 13 4.8 8.0 0.00 0.00 0.00 74 1016.0
20260905184908 31 24 4.8 9.7 0.00 0.00 0.00 73 1015.9
20260905184408 31 23 1.6 6.4 0.00 0.00 0.00 73 1015.9
20260905183909 31 90 0.0 3.2 0.00 0.00 0.00 74 1015.9
20260905183409 31 105 3.2 11.3 0.00 0.00 0.00 72 1016.0
20260905182909 31 2 4.8 11.3 0.00 0.00 0.00 71 1016.1
20260905182409 31 15 3.2 8.0 0.00 0.00 0.00 73 1016.2
20260905181911 31 2 4.8 6.4 0.00 0.00 0.00 73 1016.2
20260905181408 31 20 4.8 8.0 0.00 0.00 0.00 73 1016.2
20260905180908 31 19 4.8 6.4 0.00 0.00 0.00 73 1016.2
20260905180410 31 8 3.2 6.4 0.00 0.00 0.00 71 1016.1
20260905175908 31 346 3.2 4.8 0.00 0.00 0.00 72 1016.1
20260905175409 31 357 0.0 1.6 0.00 0.00 0.00 72 1016.1
20260905174908 31 249 0.0 0.0 0.00 0.00 0.00 74 1016.0
20260905174408 30 55 1.6 3.2 0.00 0.00 0.00 73 1015.9
20260905173908 31 20 1.6 3.2 0.00 0.00 0.00 73 1015.9
20260905173409 31 360 3.2 6.4 0.00 0.00 0.00 73 1016.0
20260905172908 31 74 0.0 3.2 0.00 0.00 0.00 72 1016.0
20260905172408 31 86 6.4 12.9 0.00 0.00 0.00 72 1015.9
20260905171908 30 16 1.6 4.8 0.00 0.00 0.00 72 1015.9
20260905171409 30 104 1.6 4.8 0.00 0.00 0.00 73 1015.9
20260905170908 30 29 3.2 6.4 0.00 0.00 0.00 73 1015.9
20260905170409 30 9 1.6 4.8 0.00 0.00 0.00 74 1016.0
20260905165908 30 28 1.6 4.8 0.00 0.00 0.00 75 1016.0